This is the latest recevied weather packets stored in our database for station/object SV8FES. If no packets are shown the sender has not sent any weather packets the latest 10 day(s).
| Time | Temp. | Humidity | Pressure | Rain* | Wind** | Luminosity | Snow |
|---|---|---|---|---|---|---|---|
| 1787809504 | 27.22° C | 67% | 1012.8 hPa | 0 mm | - | 234 W/m² | - |
| 1787809444 | 27.22° C | 67% | 1012.7 hPa | 0 mm | - | 232 W/m² | - |
| 1787809383 | 27.22° C | 68% | 1012.9 hPa | 0 mm | - | 232 W/m² | - |
| 1787809323 | 27.22° C | 67% | 1012.7 hPa | 0 mm | - | 229 W/m² | - |
| 1787809263 | 26.67° C | 68% | 1012.7 hPa | 0 mm | - | 227 W/m² | - |
| 1787809205 | 26.67° C | 68% | 1012.7 hPa | 0 mm | - | 225 W/m² | - |
| 1787809143 | 26.67° C | 69% | 1012.8 hPa | 0 mm | - | 221 W/m² | - |
| 1787809084 | 26.67° C | 69% | 1012.8 hPa | 0 mm | - | 220 W/m² | - |
| 1787809023 | 26.67° C | 69% | 1012.7 hPa | 0 mm | - | 218 W/m² | - |
| 1787808964 | 26.67° C | 70% | 1012.8 hPa | 0 mm | - | 214 W/m² | - |
| 1787808904 | 26.67° C | 70% | 1012.7 hPa | 0 mm | - | 213 W/m² | - |
| 1787808843 | 26.67° C | 70% | 1012.7 hPa | 0 mm | - | 204 W/m² | - |
| 1787808785 | 26.67° C | 70% | 1012.5 hPa | 0 mm | - | 70 W/m² | - |
| 1787808726 | 26.67° C | 71% | 1012.7 hPa | 0 mm | - | 54 W/m² | - |
| 1787808664 | 26.67° C | 71% | 1012.6 hPa | 0 mm | - | 54 W/m² | - |
| 1787808604 | 26.67° C | 72% | 1012.6 hPa | 0 mm | - | 53 W/m² | - |
| 1787808544 | 26.67° C | 72% | 1012.6 hPa | 0 mm | - | 53 W/m² | - |
| 1787808485 | 26.67° C | 72% | 1012.6 hPa | 0 mm | - | 51 W/m² | - |
| 1787808424 | 26.67° C | 72% | 1012.6 hPa | 0 mm | - | 51 W/m² | - |
| 1787808363 | 26.67° C | 72% | 1012.7 hPa | 0 mm | - | 51 W/m² | - |
| 1787808303 | 26.67° C | 72% | 1012.7 hPa | 0 mm | - | 49 W/m² | - |
| 1787808245 | 26.11° C | 72% | 1012.6 hPa | 0 mm | - | 49 W/m² | - |
| 1787808185 | 26.11° C | 73% | 1012.6 hPa | 0 mm | - | 49 W/m² | - |
| 1787808123 | 26.11° C | 73% | 1012.7 hPa | 0 mm | - | 47 W/m² | - |
| 1787808064 | 26.11° C | 73% | 1012.7 hPa | 0 mm | - | 47 W/m² | - |
* Rain latest hour (hover to see other rain measurements)
** Current wind speed in m/s (hover to see current wind gust speed)